Waarnemingen

Advertentie
Mijn weer
Biarritz, Frankrijk (7602): temperatuur & dauwpunt: 20.09.2018 09:00:00 - 26.09.2018 09:00:00 (CEST)Biarritz, Frankrijk (7602): temperatuur 5cm: 20.09.2018 09:00:00 - 26.09.2018 09:00:00 (CEST)Biarritz, Frankrijk (7602): temperatuur -20cm & temperatuur -100cm: 20.09.2018 09:00:00 - 26.09.2018 09:00:00 (CEST)Biarritz, Frankrijk (7602): windsnelheid & windstoten: 20.09.2018 09:00:00 - 26.09.2018 09:00:00 (CEST)Biarritz, Frankrijk (7602): windrichting: 20.09.2018 09:00:00 - 26.09.2018 09:00:00 (CEST)Biarritz, Frankrijk (7602): luchtdruk: 20.09.2018 09:00:00 - 26.09.2018 09:00:00 (CEST)Biarritz, Frankrijk (7602): zicht: 20.09.2018 09:00:00 - 26.09.2018 09:00:00 (CEST)Biarritz, Frankrijk (7602): Zonneschijnduur: 20.09.2018 09:00:00 - 26.09.2018 09:00:00 (CEST)Biarritz, Frankrijk (7602): neerslag: 20.09.2018 09:00:00 - 26.09.2018 09:00:00 (CEST)
Datum & Tijd tt [°C] td [°C] tt 5cm [°C] tt -20cm [°C] tt -100cm [°C] ff [km/u] ff [kn] fx [km/u] fx [kn] dd ppp [hPa] vv [km] sd [min] rr [mm]
26.09.2018 09:00:00 13,6 10,9 11,2 18,9 21,4 8 5 14 8 ONO 1026,9 34 42 0,0
26.09.2018 08:00:00 11,0 9,7 10,5 19,0 21,4 11 6 16 8 O 1026,7 48 0 0,0
26.09.2018 07:00:00 10,5 9,6 9,8 19,2 21,4 9 5 14 8 O 1026,6 46 0 0,0
26.09.2018 06:00:00 9,8 8,9 9,6 19,3 21,4 10 5 14 8 O 1026,7 39 0 0,0
26.09.2018 05:00:00 10,2 9,4 9,2 19,4 21,4 10 6 13 7 ONO 1026,9 41 0 0,0
26.09.2018 04:00:00 9,7 8,9 8,1 19,6 21,4 8 4 12 6 ZO 1027,4 20 0 0,0
26.09.2018 03:00:00 10,5 9,4 7,2 19,7 21,4 6 3 11 6 ZZO 1027,9 41 0 0,0
26.09.2018 02:00:00 10,9 9,7 7,6 19,9 21,4 6 3 8 4 Z 1028,3 43 0 0,0
26.09.2018 01:00:00 11,2 10,1 7,9 20,0 21,4 3 2 10 5 Z 1028,4 11 0 0,0
26.09.2018 00:00:00 11,2 9,6 8,0 20,2 21,5 6 3 9 5 ZZO 1028,5 47 0 0,0
25.09.2018 23:00:00 12,5 10,7 8,1 20,3 21,5 5 3 7 4 ZZO 1028,4 56 0 0,0
25.09.2018 22:00:00 13,2 10,2 8,9 20,5 21,5 5 3 6 4 ZZO 1028,2 60 0 0,0
25.09.2018 21:00:00 14,3 9,5 9,8 20,6 21,5 2 1 6 3 N 1028,0 21 0 0,0
25.09.2018 20:00:00 15,1 9,5 14,2 20,6 21,5 4 2 11 6 NW 1027,6 60 37 0,0
25.09.2018 19:00:00 16,5 9,7 19,4 20,7 21,5 10 5 16 9 NW 1027,4 53 60 0,0
25.09.2018 18:00:00 16,9 9,1 21,9 20,6 21,5 10 6 14 8 W 1027,4 51 60 0,0
25.09.2018 17:00:00 17,5 7,8 23,8 20,4 21,5 6 3 15 8 NNW 1027,7 54 60 0,0
25.09.2018 16:00:00 16,6 8,8 23,4 20,2 21,5 8 4 19 10 NW 1028,0 38 60 0,0
25.09.2018 15:00:00 16,7 9,9 23,0 19,9 21,6 11 6 18 10 NW 1028,3 60 60 0,0
25.09.2018 14:00:00 15,8 9,7 22,8 19,7 21,6 10 6 19 10 NNW 1029,0 30 60 0,0
25.09.2018 13:00:00 15,3 9,0 21,7 19,5 21,6 11 6 18 10 W 1029,4 19 60 0,0
25.09.2018 12:00:00 14,6 9,2 20,9 19,4 21,6 11 6 19 10 WNW 1029,6 34 60 0,0
25.09.2018 11:00:00 14,6 9,0 19,4 19,4 21,6 5 3 10 6 W 1029,2 19 60 0,0
25.09.2018 10:00:00 12,4 8,5 12,8 19,5 21,6 4 2 8 4 OZO 1029,1 37 60 0,0
25.09.2018 09:00:00 10,2 8,5 4,9 19,7 21,6 4 2 5 3 O 1029,1 16 43 0,0
25.09.2018 08:00:00 8,6 7,5 4,3 19,8 21,6 2 1 8 4 ZZW 1029,0 14 0 0,0
25.09.2018 07:00:00 8,8 7,6 5,0 20,0 21,6 6 3 7 4 OZO 1029,0 13 0 0,0
25.09.2018 06:00:00 8,7 7,1 6,9 20,2 21,6 6 3 9 5 OZO 1029,1 10 0 0,0
25.09.2018 05:00:00 8,8 7,1 8,3 20,4 21,6 6 3 10 6 O 1029,2 19 0 0,0
25.09.2018 04:00:00 10,5 7,6 9,6 20,6 21,6 7 4 16 9 O 1029,5 42 0 0,0
25.09.2018 03:00:00 9,9 8,0 9,0 20,8 21,6 10 5 14 8 O 1029,7 44 0 0,0
25.09.2018 02:00:00 11,6 8,3 10,1 21,0 21,6 8 4 14 7 O 1029,8 54 0 0,0
25.09.2018 01:00:00 12,1 8,9 9,3 21,2 21,7 8 5 11 6 O 1030,0 18 0 0,0
25.09.2018 00:00:00 13,3 9,7 8,2 21,4 21,6 3 1 5 3 O 1030,0 60 0 0,0
24.09.2018 23:00:00 13,0 10,9 9,5 21,5 21,6 0 0 5 3 N 1030,1 45 0 0,0
24.09.2018 22:00:00 13,7 10,9 11,7 21,8 21,7 5 3 11 6 ZW 1030,1 55 0 0,0
24.09.2018 21:00:00 15,0 10,2 12,3 21,9 21,6 7 4 13 7 ZW 1029,9 60 0 0,0
24.09.2018 20:00:00 16,3 9,9 15,3 22,1 21,7 8 4 17 9 WNW 1029,8 60 30 0,0
24.09.2018 19:00:00 17,1 10,2 18,3 22,1 21,6 14 7 22 12 WNW 1029,8 19 57 0,0
24.09.2018 18:00:00 17,4 11,2 19,2 22,2 21,7 13 7 23 12 NW 1029,7 59 40 0,0
24.09.2018 17:00:00 16,5 11,2 18,6 22,1 21,7 12 7 31 17 NW 1030,1 48 21 0,0
24.09.2018 16:00:00 17,0 11,5 20,7 21,9 21,6 13 7 24 13 NW 1030,5 60 57 0,0
24.09.2018 15:00:00 17,2 11,5 23,3 21,7 21,7 13 7 28 15 NW 1030,8 60 60 0,0
24.09.2018 14:00:00 17,4 12,3 24,1 21,6 21,7 15 8 25 14 NNW 1031,0 56 60 0,0
24.09.2018 13:00:00 17,1 12,4 20,2 21,5 21,7 11 6 20 11 NNW 1031,4 50 33 0,0
24.09.2018 12:00:00 16,1 12,1 17,5 21,5 21,7 10 6 16 9 NW 1031,6 35 25 0,0
24.09.2018 11:00:00 15,9 12,8 16,4 21,6 21,6 5 3 13 7 NO 1031,6 54 1 0,0
24.09.2018 10:00:00 15,1 12,6 15,7 21,7 21,6 8 5 28 15 NNO 1031,1 58 0 0,0
24.09.2018 09:00:00 14,8 12,7 15,3 21,8 21,7 14 8 26 14 NNO 1030,3 60 0 0,0
24.09.2018 08:00:00 15,0 13,2 15,4 22,0 21,7 17 9 29 15 NNO 1029,5 60 0 0,0
24.09.2018 07:00:00 16,8 15,1 17,2 22,1 21,7 13 7 21 11 NNO 1028,4 59 0 0,0
24.09.2018 06:00:00 17,3 15,6 17,6 22,2 21,6 13 7 26 14 N 1027,9 57 0 0,0
24.09.2018 05:00:00 17,9 16,2 17,7 22,3 21,6 7 4 21 12 N 1027,6 49 0 0,0
24.09.2018 04:00:00 18,2 16,9 18,0 22,4 21,7 15 8 31 17 N 1027,2 34 0 0,0
24.09.2018 03:00:00 18,8 18,1 18,7 22,5 21,7 11 6 36 19 N 1027,1 33 0 0,0
24.09.2018 02:00:00 18,9 18,4 19,3 22,6 21,6 18 10 39 21 N 1026,9 4,4 0 1,6
24.09.2018 01:00:00 20,1 19,6 20,2 22,7 21,7 19 11 34 18 W 1026,5 2,0 0 1,4
24.09.2018 00:00:00 19,9 19,4 20,1 22,7 21,7 14 8 27 15 W 1026,7 6 0 0,0
23.09.2018 23:00:00 19,8 19,3 20,1 22,9 21,7 13 7 23 13 W 1026,7 2,0 0 0,6
23.09.2018 22:00:00 20,0 19,3 20,1 22,9 21,7 16 9 29 15 W 1026,8 1,8 0 0,6
23.09.2018 21:00:00 20,0 19,0 20,1 23,0 21,7 15 8 29 15 WNW 1026,6 3,4 0 0,2
23.09.2018 20:00:00 20,9 19,0 21,2 23,1 21,7 10 5 21 12 WZW 1025,9 13 0 0,0
23.09.2018 19:00:00 21,4 18,6 22,0 23,1 21,7 9 5 30 16 WZW 1025,5 4,5 0 0,0
23.09.2018 18:00:00 21,5 18,9 22,5 23,0 21,7 17 9 29 16 WNW 1025,2 18 0 0,0
23.09.2018 17:00:00 22,1 18,7 23,7 22,9 21,7 22 12 30 16 WNW 1024,9 18 14 0,0
23.09.2018 16:00:00 22,5 19,1 25,9 22,6 21,7 25 14 37 20 NW 1024,6 50 48 0,0
23.09.2018 15:00:00 23,5 19,2 29,8 22,3 21,7 15 8 24 13 NNW 1023,6 60 60 0,0
23.09.2018 14:00:00 23,8 19,3 29,9 22,0 21,7 17 9 24 13 NNW 1023,8 60 60 0,0
23.09.2018 13:00:00 24,7 19,1 31,5 21,7 21,7 4 2 11 6 ONO 1023,7 17 60 0,0
23.09.2018 12:00:00 24,3 18,2 31,1 21,5 21,7 3 1 8 5 NNO 1024,1 44 60 0,0
23.09.2018 11:00:00 23,4 17,6 28,3 21,5 21,7 3 1 6 3 NNO 1024,4 39 60 0,0
23.09.2018 10:00:00 21,9 17,5 22,7 21,5 21,7 4 2 5 3 ZZO 1024,1 52 60 0,0
23.09.2018 09:00:00 18,1 16,6 13,4 21,6 21,7 3 2 8 5 Z 1023,8 43 45 0,0
23.09.2018 08:00:00 15,9 15,3 12,8 21,7 21,7 7 4 11 6 ZZO 1023,6 19 0 0,0
23.09.2018 07:00:00 15,8 15,0 13,2 21,8 21,7 9 5 13 7 ZZO 1023,5 40 0 0,0
23.09.2018 06:00:00 16,5 15,4 13,7 22,0 21,7 5 3 7 4 ZZO 1023,8 25 0 0,0
23.09.2018 05:00:00 17,0 15,7 15,6 22,1 21,7 5 3 8 4 Z 1024,0 40 0 0,0
23.09.2018 04:00:00 17,3 15,8 15,6 22,2 21,7 6 3 8 4 ZZW 1024,6 31 0 0,0
23.09.2018 03:00:00 18,9 17,0 17,3 22,3 21,7 4 2 10 6 WZW 1025,0 20 0 0,0
23.09.2018 02:00:00 19,0 16,6 17,7 22,5 21,7 7 4 12 6 WZW 1025,1 36 0 0,0
23.09.2018 01:00:00 19,3 16,7 16,3 22,6 21,7 7 4 11 6 WZW 1025,3 35 0 0,0
23.09.2018 00:00:00 18,9 16,5 15,8 22,7 21,7 5 3 8 4 ZZW 1025,0 37 0 0,0
22.09.2018 23:00:00 19,8 16,8 16,1 22,9 21,7 5 3 8 4 ZW 1025,0 43 0 0,0
22.09.2018 22:00:00 20,5 16,5 17,4 23,0 21,7 5 3 10 6 Z 1024,5 51 0 0,0
22.09.2018 21:00:00 21,0 16,0 19,3 23,1 21,7 8 4 9 5 W 1024,0 54 0 0,0
22.09.2018 20:00:00 22,6 16,2 21,6 23,2 21,7 6 4 14 7 WZW 1023,6 19 42 0,0
22.09.2018 19:00:00 24,9 15,8 27,4 23,2 21,7 9 5 18 10 W 1023,5 51 50 0,0
22.09.2018 18:00:00 25,9 15,9 29,6 23,1 21,7 10 6 19 10 W 1023,3 50 60 0,0
22.09.2018 17:00:00 25,7 15,4 31,0 22,9 21,7 11 6 18 10 NW 1023,4 49 60 0,0
22.09.2018 16:00:00 26,1 17,2 32,5 22,6 21,7 11 6 25 13 NNW 1023,2 44 60 0,0
22.09.2018 15:00:00 26,0 18,2 32,7 22,2 21,7 12 7 16 9 NNW 1023,1 30 60 0,0
22.09.2018 14:00:00 26,6 17,4 31,5 21,9 21,7 2 1 14 8 N 1023,3 33 60 0,0
22.09.2018 13:00:00 24,6 18,8 29,7 21,7 21,7 7 4 14 8 O 1023,5 42 60 0,0
22.09.2018 12:00:00 23,1 17,8 28,1 21,5 21,7 7 4 19 11 O 1023,7 34 60 0,0
22.09.2018 11:00:00 21,5 17,5 24,4 21,5 21,7 5 3 11 6 OZO 1023,7 48 60 0,0
22.09.2018 10:00:00 19,1 17,6 19,6 21,5 21,7 5 3 10 6 O 1023,8 26 60 0,0
22.09.2018 09:00:00 17,1 16,6 15,5 21,6 21,7 8 4 10 5 O 1023,4 18 46 0,0
22.09.2018 08:00:00 15,8 15,3 14,9 21,7 21,7 5 3 10 5 OZO 1023,5 20 0 0,0
22.09.2018 07:00:00 15,7 15,2 15,2 21,9 21,7 6 3 9 5 OZO 1023,1 15 0 0,0
22.09.2018 06:00:00 16,6 16,0 15,7 21,9 21,7 6 3 8 4 NO 1023,5 18 0 0,0
22.09.2018 05:00:00 17,4 16,8 17,6 22,0 21,7 4 2 8 4 NNO 1023,6 31 0 0,0
22.09.2018 04:00:00 17,4 16,8 17,8 22,1 21,7 5 3 11 6 OZO 1024,0 29 0 0,0
22.09.2018 03:00:00 17,8 17,0 18,0 22,2 21,7 5 3 11 6 O 1024,3 29 0 0,0
22.09.2018 02:00:00 17,9 17,1 17,8 22,3 21,7 5 3 8 4 ONO 1024,7 34 0 0,0
22.09.2018 01:00:00 17,8 16,8 17,9 22,4 21,7 4 2 9 5 OZO 1024,7 28 0 0,0
22.09.2018 00:00:00 18,4 17,1 17,6 22,5 21,7 4 2 9 5 NO 1025,0 35 0 0,0
21.09.2018 23:00:00 18,1 16,6 17,8 22,6 21,7 6 3 11 6 O 1024,5 35 0 0,0
21.09.2018 22:00:00 18,4 16,9 18,3 22,7 21,7 4 2 13 7 NNO 1024,8 38 0 0,0
21.09.2018 21:00:00 18,4 17,7 18,4 22,8 21,7 5 3 11 6 NO 1023,9 38 0 0,0
21.09.2018 20:00:00 18,7 18,0 19,1 22,8 21,7 6 3 18 10 N 1023,6 12 0 0,4
21.09.2018 19:00:00 18,9 17,9 19,3 22,8 21,7 11 6 22 12 N 1023,3 2,2 0 0,6
21.09.2018 18:00:00 19,7 17,8 21,1 22,8 21,7 12 7 28 15 N 1022,8 46 0 0,0
21.09.2018 17:00:00 21,9 18,3 23,7 22,7 21,7 25 14 37 20 WNW 1022,4 33 1 0,0
21.09.2018 16:00:00 23,0 17,7 26,0 22,6 21,7 25 13 39 21 WNW 1021,8 20 26 0,0
21.09.2018 15:00:00 24,4 15,9 27,4 22,4 21,7 20 11 31 17 W 1021,2 42 4 0,0
21.09.2018 14:00:00 24,2 16,2 28,0 22,2 21,7 16 9 30 16 W 1021,5 22 60 0,0
21.09.2018 13:00:00 24,1 15,8 27,2 22,1 21,7 14 7 26 14 W 1021,6 30 50 0,0
21.09.2018 12:00:00 23,8 16,3 24,3 22,0 21,7 5 3 14 7 ZW 1021,4 20 34 0,0
21.09.2018 11:00:00 21,5 19,4 23,4 22,0 21,7 5 3 13 7 WZW 1021,1 12 3 0,0
21.09.2018 10:00:00 20,6 19,4 19,2 22,1 21,7 6 4 11 6 ZW 1020,3 8 5 0,0
21.09.2018 09:00:00 18,6 17,9 17,7 22,2 21,7 3 2 6 3 ZW 1019,6 8 5 0,0
21.09.2018 08:00:00 18,0 17,4 16,2 22,3 21,7 6 3 8 4 Z 1018,6 7 0 0,0
21.09.2018 07:00:00 18,1 17,3 15,9 22,4 21,7 5 3 8 5 ZZW 1018,2 4,5 0 0,0
21.09.2018 06:00:00 18,4 17,6 15,6 22,5 21,7 4 2 6 3 Z 1017,8 5 0 0,0
21.09.2018 05:00:00 19,2 18,2 18,2 22,6 21,7 4 2 9 5 ZW 1017,7 8 0 0,0
21.09.2018 04:00:00 18,7 17,7 18,2 22,7 21,7 4 2 8 4 ZZW 1017,7 9 0 0,0
21.09.2018 03:00:00 19,7 18,7 18,7 22,8 21,7 5 3 8 5 WZW 1017,7 4,9 0 0,0
21.09.2018 02:00:00 19,7 18,4 18,9 22,9 21,7 5 3 7 4 ZW 1017,7 8 0 0,0
21.09.2018 01:00:00 19,9 18,4 19,0 23,0 21,7 5 3 13 7 ZW 1018,0 9 0 0,0
21.09.2018 00:00:00 20,4 18,7 19,9 23,1 21,7 9 5 15 8 W 1018,2 14 0 0,0
20.09.2018 23:00:00 20,2 18,5 19,9 23,2 21,7 8 4 18 10 W 1018,1 12 0 0,0
20.09.2018 22:00:00 20,4 18,7 19,9 23,3 21,7 11 6 17 9 W 1018,0 14 0 0,0
20.09.2018 21:00:00 20,5 18,6 20,0 23,4 21,7 6 3 16 9 W 1017,3 17 0 0,0
20.09.2018 20:00:00 21,0 18,4 21,1 23,5 21,7 12 7 19 11 NW 1016,9 20 28 0,0
20.09.2018 19:00:00 22,2 18,8 24,9 23,5 21,7 13 7 28 15 NNW 1016,4 19 60 0,0
20.09.2018 18:00:00 23,7 18,8 28,5 23,4 21,7 18 10 25 14 NNW 1016,1 17 60 0,0
20.09.2018 17:00:00 24,0 18,2 29,6 23,2 21,7 16 9 22 12 NNW 1016,5 16 60 0,0
20.09.2018 16:00:00 24,4 19,2 30,9 22,9 21,7 13 7 19 10 NNW 1016,9 17 60 0,0
20.09.2018 15:00:00 24,7 18,9 31,7 22,6 21,7 13 7 18 10 NNW 1017,4 19 60 0,0
20.09.2018 14:00:00 25,5 18,9 32,2 22,3 21,7 9 5 16 9 NO 1018,1 19 60 0,0
20.09.2018 13:00:00 25,4 18,8 30,1 22,0 21,7 8 4 14 8 ONO 1018,9 47 60 0,0
20.09.2018 12:00:00 23,7 17,9 29,4 21,8 21,7 8 4 13 7 NO 1019,4 35 60 0,0
20.09.2018 11:00:00 22,3 18,3 24,7 21,8 21,7 6 3 10 6 O 1019,9 21 60 0,0
20.09.2018 10:00:00 19,9 17,7 20,8 21,8 21,7 5 3 10 5 ZO 1020,0 16 60 0,0
20.09.2018 09:00:00 17,7 17,2 13,8 22,0 21,7 4 2 8 4 ZO 1020,5 11 48 0,0

tt = temperatuur
td = dauwpunt
tt 5cm = temperatuur 5cm
tt -20cm = temperatuur -20cm
tt -100cm = temperatuur -100cm
ff = windsnelheid
fx = windstoten
dd = windrichting
ppp = luchtdruk
vv = zicht
sd = Zonneschijnduur
rr = neerslag

Weerstations in de omgeving